CAPE
520 777 1385 1303 1133 896 457 258 316 312 255 147 235 605 530 235 480 712 674 416 230 44 1 0 147 206 115 204 164 82 84 0 0 0 25 262 360 148 15 2 1 5 17
211 874 1402 1534 1223 1054 655 342 250 255 205 155 330 750 990 740 251 757 832 295 202 35 1 0 223 275 150 17 24 2 18 0 0 0 0 6 204 141 9 5 27 9 11
525 996 1255 1604 1591 1074 946 629 293 172 149 140 203 344 610 582 761 1006 887 330 252 96 16 0 0 84 31 1 0 0 0 14 1 0 0 0 16 194 34 27 16 7 38
359 833 1293 1622 1598 1167 987 1020 667 270 143 174 474 1045 1060 1451 936 875 920 428 274 135 19 0 17 17 55 9 0 0 0 2 12 14 2 0 0 58 140 45 11 9 20
723 973 1205 1409 1536 1509 1249 1102 1118 666 342 292 583 749 858 1353 1197 815 976 615 432 321 48 0 0 0 0 0 0 0 0 0 10 13 2 0 0 0 152 72 9 0 0
1026 1030 1188 1454 1489 1200 970 913 942 1165 756 463 320 326 633 1275 1233 1257 1316 1221 705 640 156 7 0 0 0 0 0 0 0 0 4 7 5 0 0 21 46 86 14 0 2
827 889 1142 1509 1560 1470 1373 1107 1003 1078 1173 872 563 267 251 1042 1129 1165 1466 1210 766 368 296 92 0 49 0 0 0 0 0 0 0 0 1 0 0 7 0 0 2 3 7
798 720 637 646 665 559 627 909 1045 1145 1129 1112 1093 926 493 393 1012 1067 1132 1123 636 327 207 238 106 22 108 10 0 0 6 0 0 0 0 5 1 20 17 0 0 0 0
748 715 663 624 570 547 477 371 352 379 462 785 866 976 962 413 301 689 1112 1015 775 529 491 499 319 213 176 186 47 41 0 0 0 0 0 0 1 42 63 16 0 0 0
371 469 132 205 227 39 93 126 149 181 102 30 176 343 387 387 399 391 366 873 891 938 893 755 530 433 497 608 482 179 3 0 0 0 0 0 13 164 128 13 0 0 0
19 90 75 23 12 38 5 0 0 0 0 0 0 0 0 292 512 614 596 446 677 938 860 816 779 735 597 387 320 202 30 0 0 0 0 0 0 413 307 275 33 0 1
0 0 0 0 0 0 0 0 0 0 0 0 0 0 0 0 0 0 250 498 558 552 613 777 719 546 397 149 69 70 61 5 0 0 0 0 0 377 406 924 450 132 20
0 0 0 0 0 0 0 0 0 0 0 0 0 0 0 0 0 0 0 4 9 226 364 470 567 503 442 343 202 113 42 41 0 0 0 0 0 98 466 979 950 422 216
0 0 0 0 0 0 0 0 0 0 0 0 0 0 0 0 0 0 0 0 0 0 1 143 266 311 369 402 393 362 255 341 88 1 0 0 0 10 450 1044 972 678 439
0 0 0 0 0 0 0 0 0 0 0 0 0 0 0 0 0 0 0 0 0 0 0 0 0 6 75 176 212 201 294 247 332 317 120 19 0 167 1023 1241 539 565 683
0 0 0 0 0 0 0 0 0 0 0 0 0 0 0 0 0 0 0 0 0 0 0 0 0 0 0 18 122 199 193 196 191 202 200 177 42 65 720 1181 912 718 560
0 0 0 0 0 0 0 0 0 0 0 0 0 0 0 0 0 0 0 0 0 0 0 0 0 0 0 0 1 2 34 92 249 117 92 170 168 90 234 1005 1124 1190 1208
0 0 0 0 0 0 0 0 0 0 0 0 0 0 0 0 0 0 0 0 0 0 0 0 0 0 0 0 0 0 0 0 34 40 45 76 148 252 115 286 822 1119 1286
0 0 0 0 0 0 0 0 0 0 0 0 0 0 0 0 0 0 0 0 0 0 0 0 0 0 0 0 0 0 0 0 0 0 0 39 123 118 185 243 155 479 618
0 0 0 0 0 0 0 0 0 0 0 0 0 0 0 0 0 0 0 0 0 0 0 0 0 0 0 0 0 0 0 0 0 0 14 19 95 160 109 135 241 236 202
0 0 0 0 0 0 0 0 0 0 0 0 0 0 0 0 0 0 0 0 0 0 0 0 0 0 0 0 0 0 0 0 0 0 0 29 127 208 207 166 152 228 225
0 0 0 0 0 0 0 0 0 0 0 0 0 0 0 0 0 0 0 0 0 0 0 0 0 0 0 0 0 0 0 0 0 0 0 58 165 302 352 299 287 150 195
0 0 0 0 0 0 0 0 0 0 0 0 0 0 0 0 0 0 0 0 0 0 0 0 0 0 0 0 0 0 0 0 0 0 2 19 33 67 282 390 361 405 382
0 0 0 0 0 0 0 0 0 0 0 0 0 0 0 0 0 0 0 0 0 0 0 0 0 0 0 0 0 0 0 0 0 0 0 0 26 110 151 264 496 320 398
0 0 0 0 0 0 0 0 0 0 0 0 0 0 0 0 0 0 0 0 0 0 0 0 0 0 0 0 0 0 0 0 0 0 0 0 1 38 107 173 270 294 261
0 0 0 0 0 0 0 0 0 0 0 0 0 0 0 0 0 0 0 0 0 0 0 0 0 0 0 0 0 0 0 0 0 0 0 0 0 4 67 29 73 111 154
CIN
-29 -18 -6 -3 -1 -5 -51 -109 -91 -85 -100 -162 -115 -24 -39 -114 -34 -1 -2 -30 -71 -181 -0 -0 -84 -61 -140 -95 -111 -187 -182 -0 -0 -0 -209 -88 -51 -165 -0 -1 -1 -4 -0
-77 -22 -9 -5 -3 -4 -35 -108 -136 -134 -146 -177 -98 -3 -0 -9 -106 -1 -0 -59 -75 -172 -149 -0 -51 -29 -79 -198 -193 -26 -276 -0 -0 -0 -0 -18 -113 -178 -0 -0 -28 -1 -0
-56 -21 -13 -5 -1 -5 -6 -50 -136 -208 -215 -209 -155 -95 -27 -26 -6 -0 -0 -55 -66 -123 -222 -0 -0 -125 -167 -73 -0 -0 -0 -8 -3 -0 -0 -0 -26 -99 -0 -1 -0 -0 -1
-60 -11 -13 -4 -1 -2 -4 -3 -40 -163 -236 -206 -89 -0 -0 -0 -6 -1 -0 -36 -71 -110 -200 -91 -203 -202 -149 -238 -0 -0 -0 -9 -21 -14 -10 -0 -0 -193 -120 -29 -0 -0 -0
-37 -6 -17 -10 -2 -1 -2 -3 -3 -40 -133 -151 -64 -20 -4 -0 -0 -7 -0 -12 -41 -57 -181 -0 -0 -0 -0 -0 -0 -0 -0 -0 -40 -14 -11 -0 -0 -0 -113 -196 -0 -0 -0
-12 -6 -16 -6 -3 -5 -12 -12 -8 -3 -17 -81 -130 -122 -32 -0 -0 -0 -0 -1 -4 -3 -98 -84 -0 -0 -0 -0 -0 -0 -0 -0 -59 -8 -13 -0 -0 -63 -190 -135 -0 -0 -0
-37 -30 -8 -3 -1 -2 -2 -7 -10 -6 -4 -14 -40 -132 -128 -1 -0 -2 -1 -1 -3 -34 -38 -121 -8 -142 -32 -0 -0 -0 -0 -0 -0 -0 -5 -0 -0 -12 -0 -0 -0 -0 -0
-29 -25 -27 -41 -52 -62 -78 -34 -22 -14 -11 -8 -4 -5 -42 -54 -1 -1 -1 -1 -6 -29 -53 -29 -78 -164 -65 -118 -0 -0 -73 -0 -0 -0 -0 -15 -13 -7 -76 -0 -0 -0 -0
-28 -29 -31 -43 -61 -78 -89 -90 -92 -91 -76 -34 -19 -7 -7 -40 -74 -10 -1 -2 -4 -8 -8 -2 -5 -20 -24 -20 -92 -86 -0 -0 -0 -0 -0 -0 -2 -72 -64 -2 -0 -0 -0
-117 -61 -149 -112 -128 -211 -171 -135 -122 -104 -141 -194 -139 -57 -33 -31 -22 -9 -34 -8 -6 -3 -0 -1 -2 -1 -0 -0 -0 -11 -103 -0 -0 -0 -0 -0 -29 -14 -7 -7 -0 -0 -0
-284 -188 -187 -238 -259 -193 -172 -0 -0 -0 -0 -0 -0 -0 -0 -47 -4 -0 -3 -3 -19 -6 -6 -5 -2 -0 -1 -2 -4 -7 -106 -0 -0 -0 -0 -0 -1 -3 -0 -0 -64 -0 -0
-0 -0 -0 -0 -0 -0 -0 -0 -0 -0 -0 -0 -0 -0 -0 -0 -0 -0 -70 -5 -3 -11 -14 -7 -8 -11 -5 -34 -115 -95 -76 -119 -0 -0 -0 -0 -0 -0 -0 -0 -0 -14 -29
-0 -0 -0 -0 -0 -0 -0 -0 -0 -0 -0 -0 -0 -0 -0 -0 -0 -0 -0 -37 -28 -56 -5 -6 -7 -6 -4 -0 -9 -39 -76 -76 -0 -0 -0 -0 -0 -37 -0 -0 -0 -0 -0
-0 -0 -0 -0 -0 -0 -0 -0 -0 -0 -0 -0 -0 -0 -0 -0 -0 -0 -0 -0 -0 -0 -105 -127 -42 -24 -9 -5 -2 -2 -5 -1 -40 -8 -0 -0 -0 -35 -2 -0 -0 -0 -0
-0 -0 -0 -0 -0 -0 -0 -0 -0 -0 -0 -0 -0 -0 -0 -0 -0 -0 -0 -0 -0 -0 -0 -0 -0 -199 -145 -37 -12 -14 -3 -10 -3 -0 -13 -19 -0 -79 -10 -0 -6 -0 -0
-0 -0 -0 -0 -0 -0 -0 -0 -0 -0 -0 -0 -0 -0 -0 -0 -0 -0 -0 -0 -0 -0 -0 -0 -0 -0 -0 -73 -86 -13 -20 -11 -9 -6 -10 -7 -1 -31 -36 -2 -2 -0 -0
-0 -0 -0 -0 -0 -0 -0 -0 -0 -0 -0 -0 -0 -0 -0 -0 -0 -0 -0 -0 -0 -0 -0 -0 -0 -0 -0 -0 -0 -0 -6 -63 -8 -38 -38 -7 -8 -19 -80 -16 -4 -1 -0
-0 -0 -0 -0 -0 -0 -0 -0 -0 -0 -0 -0 -0 -0 -0 -0 -0 -0 -0 -0 -0 -0 -0 -0 -0 -0 -0 -0 -0 -0 -0 -0 -5 -6 -8 -22 -31 -5 -1 -39 -23 -8 -2
-0 -0 -0 -0 -0 -0 -0 -0 -0 -0 -0 -0 -0 -0 -0 -0 -0 -0 -0 -0 -0 -0 -0 -0 -0 -0 -0 -0 -0 -0 -0 -0 -0 -0 -0 -21 -18 -17 -20 -4 -0 -27 -32
-0 -0 -0 -0 -0 -0 -0 -0 -0 -0 -0 -0 -0 -0 -0 -0 -0 -0 -0 -0 -0 -0 -0 -0 -0 -0 -0 -0 -0 -0 -0 -0 -0 -0 -12 -14 -25 -29 -42 -15 -9 -0 -16
-0 -0 -0 -0 -0 -0 -0 -0 -0 -0 -0 -0 -0 -0 -0 -0 -0 -0 -0 -0 -0 -0 -0 -0 -0 -0 -0 -0 -0 -0 -0 -0 -0 -0 -0 -29 -34 -33 -43 -43 -41 -18 -2
-0 -0 -0 -0 -0 -0 -0 -0 -0 -0 -0 -0 -0 -0 -0 -0 -0 -0 -0 -0 -0 -0 -0 -0 -0 -0 -0 -0 -0 -0 -0 -0 -0 -0 -0 -26 -18 -14 -9 -20 -27 -28 -14
-0 -0 -0 -0 -0 -0 -0 -0 -0 -0 -0 -0 -0 -0 -0 -0 -0 -0 -0 -0 -0 -0 -0 -0 -0 -0 -0 -0 -0 -0 -0 -0 -0 -0 -0 -0 -71 -19 -29 -13 -15 -21 -11
-0 -0 -0 -0 -0 -0 -0 -0 -0 -0 -0 -0 -0 -0 -0 -0 -0 -0 -0 -0 -0 -0 -0 -0 -0 -0 -0 -0 -0 -0 -0 -0 -0 -0 -0 -21 -3 -29 -28 -28 -26 -44 -11
-0 -0 -0 -0 -0 -0 -0 -0 -0 -0 -0 -0 -0 -0 -0 -0 -0 -0 -0 -0 -0 -0 -0 -0 -0 -0 -0 -0 -0 -0 -0 -0 -0 -0 -0 -0 -66 -5 -47 -52 -33 -39 -45
-0 -0 -0 -0 -0 -0 -0 -0 -0 -0 -0 -0 -0 -0 -0 -0 -0 -0 -0 -0 -0 -0 -0 -0 -0 -0 -0 -0 -0 -0 -0 -0 -0 -0 -0 -0 -0 -65 -39 -26 -35 -1 -0
Wind_Speed
9 12 10 8 5 5 5 7 7 8 10 11 14 15 16 16 16 15 15 14 14 nan nan nan 12 14 13 12 15 nan nan nan nan nan nan 19 20 24 nan nan nan nan nan
11 13 13 10 7 7 6 6 6 7 7 8 9 9 9 10 12 13 14 16 16 nan nan nan 14 15 16 nan nan nan nan nan nan nan nan nan 20 21 nan nan nan nan nan
6 10 10 10 9 8 7 6 7 8 8 8 7 7 7 7 7 8 14 16 18 nan nan nan nan nan nan nan nan nan nan nan nan nan nan nan nan 21 nan nan nan nan nan
4 7 9 10 9 9 8 6 6 7 7 7 7 6 5 4 8 8 13 15 16 17 nan nan nan nan nan nan nan nan nan nan nan nan nan nan nan nan 21 nan nan nan nan
2 5 8 10 9 9 10 10 10 10 10 8 8 9 7 7 9 12 14 16 16 16 nan nan nan nan nan nan nan nan nan nan nan nan nan nan nan nan 24 nan nan nan nan
6 7 10 11 11 10 11 12 12 12 13 13 13 12 12 12 12 11 15 20 19 18 17 nan nan nan nan nan nan nan nan nan nan nan nan nan nan nan nan nan nan nan nan
10 10 11 16 16 15 15 15 14 14 15 16 15 15 15 16 17 17 20 24 22 21 19 nan nan nan nan nan nan nan nan nan nan nan nan nan nan nan nan nan nan nan nan
15 14 14 17 20 20 19 19 19 19 19 18 17 17 17 18 18 19 22 24 23 21 20 19 19 nan 18 nan nan nan nan nan nan nan nan nan nan nan nan nan nan nan nan
18 17 16 16 18 21 22 23 23 23 23 23 22 21 20 21 21 20 22 23 22 21 21 21 20 19 20 20 nan nan nan nan nan nan nan nan nan nan nan nan nan nan nan
18 19 19 19 21 nan nan 26 26 25 25 nan 23 22 21 20 20 19 19 20 21 22 23 24 24 23 22 22 24 25 nan nan nan nan nan nan nan 22 26 nan nan nan nan
nan nan nan nan nan nan nan nan nan nan nan nan nan nan nan 17 14 12 14 13 13 14 15 17 18 18 19 21 23 25 nan nan nan nan nan nan nan 20 23 25 nan nan nan
nan nan nan nan nan nan nan nan nan nan nan nan nan nan nan nan nan nan 17 16 14 13 12 15 18 19 21 25 nan nan nan nan nan nan nan nan nan 20 22 26 27 25 nan
nan nan nan nan nan nan nan nan nan nan nan nan nan nan nan nan nan nan nan nan nan 25 27 26 27 28 29 30 30 30 nan nan nan nan nan nan nan nan 22 28 30 27 27
nan nan nan nan nan nan nan nan nan nan nan nan nan nan nan nan nan nan nan nan nan nan nan 31 33 31 31 31 32 31 31 32 nan nan nan nan nan nan 23 27 31 30 29
nan nan nan nan nan nan nan nan nan nan nan nan nan nan nan nan nan nan nan nan nan nan nan nan nan nan nan 34 34 35 34 35 34 37 37 nan nan 25 25 26 29 29 29
nan nan nan nan nan nan nan nan nan nan nan nan nan nan nan nan nan nan nan nan nan nan nan nan nan nan nan nan 39 39 39 39 40 40 38 38 nan nan 29 27 26 27 27
nan nan nan nan nan nan nan nan nan nan nan nan nan nan nan nan nan nan nan nan nan nan nan nan nan nan nan nan nan nan nan nan 45 44 nan 47 43 nan 32 30 29 27 27
nan nan nan nan nan nan nan nan nan nan nan nan nan nan nan nan nan nan nan nan nan nan nan nan nan nan nan nan nan nan nan nan nan nan nan nan 52 50 45 33 32 31 28
nan nan nan nan nan nan nan nan nan nan nan nan nan nan nan nan nan nan nan nan nan nan nan nan nan nan nan nan nan nan nan nan nan nan nan nan 50 51 52 47 42 36 34
nan nan nan nan nan nan nan nan nan nan nan nan nan nan nan nan nan nan nan nan nan nan nan nan nan nan nan nan nan nan nan nan nan nan nan nan nan 54 54 52 53 47 33
nan nan nan nan nan nan nan nan nan nan nan nan nan nan nan nan nan nan nan nan nan nan nan nan nan nan nan nan nan nan nan nan nan nan nan nan 62 61 59 57 55 52 46
nan nan nan nan nan nan nan nan nan nan nan nan nan nan nan nan nan nan nan nan nan nan nan nan nan nan nan nan nan nan nan nan nan nan nan nan 65 69 68 61 59 56 54
nan nan nan nan nan nan nan nan nan nan nan nan nan nan nan nan nan nan nan nan nan nan nan nan nan nan nan nan nan nan nan nan nan nan nan nan nan nan 67 67 63 59 54
nan nan nan nan nan nan nan nan nan nan nan nan nan nan nan nan nan nan nan nan nan nan nan nan nan nan nan nan nan nan nan nan nan nan nan nan nan 55 57 65 64 62 58
nan nan nan nan nan nan nan nan nan nan nan nan nan nan nan nan nan nan nan nan nan nan nan nan nan nan nan nan nan nan nan nan nan nan nan nan nan nan 52 56 57 59 58
nan nan nan nan nan nan nan nan nan nan nan nan nan nan nan nan nan nan nan nan nan nan nan nan nan nan nan nan nan nan nan nan nan nan nan nan nan nan nan nan nan 52 51
Wind_Direction
51 49 21 9 344 307 292 297 304 307 304 298 289 286 283 289 291 288 289 291 288 nan nan nan 278 278 278 274 280 nan nan nan nan nan nan 251 259 272 nan nan nan nan nan
46 37 23 15 5 354 328 314 322 326 327 327 324 319 304 304 299 293 291 284 287 nan nan nan 276 280 281 nan nan nan nan nan nan nan nan nan 267 268 nan nan nan nan nan
30 22 30 12 358 350 336 318 324 330 332 325 319 316 316 326 322 311 313 300 291 nan nan nan nan nan nan nan nan nan nan nan nan nan nan nan nan 279 nan nan nan nan nan
72 38 15 8 354 336 331 324 320 320 319 313 301 298 291 292 338 341 338 330 320 308 nan nan nan nan nan nan nan nan nan nan nan nan nan nan nan nan 288 nan nan nan nan
151 351 344 347 338 328 318 322 325 316 311 309 298 289 282 273 300 334 334 330 324 323 nan nan nan nan nan nan nan nan nan nan nan nan nan nan nan nan 282 nan nan nan nan
243 275 310 314 314 315 311 312 308 315 309 305 305 305 297 285 287 301 324 317 316 315 318 nan nan nan nan nan nan nan nan nan nan nan nan nan nan nan nan nan nan nan nan
259 262 278 287 288 289 289 291 293 293 311 308 304 299 294 289 292 290 309 312 310 311 313 nan nan nan nan nan nan nan nan nan nan nan nan nan nan nan nan nan nan nan nan
271 270 276 278 286 288 287 288 287 287 291 297 296 294 292 292 289 292 298 304 305 306 306 305 304 nan 304 nan nan nan nan nan nan nan nan nan nan nan nan nan nan nan nan
273 276 278 280 284 284 285 286 285 283 281 282 284 283 286 286 284 283 294 296 298 302 304 306 305 302 303 302 nan nan nan nan nan nan nan nan nan nan nan nan nan nan nan
271 275 277 277 278 nan nan 276 274 274 273 nan 276 280 278 278 281 283 285 296 304 307 307 307 308 311 313 309 306 302 nan nan nan nan nan nan nan 314 305 nan nan nan nan
nan nan nan nan nan nan nan nan nan nan nan nan nan nan nan 290 292 290 303 319 324 326 332 328 327 323 315 310 307 304 nan nan nan nan nan nan nan 315 309 309 nan nan nan
nan nan nan nan nan nan nan nan nan nan nan nan nan nan nan nan nan nan 290 295 307 306 311 321 318 315 306 294 nan nan nan nan nan nan nan nan nan 310 307 301 305 309 nan
nan nan nan nan nan nan nan nan nan nan nan nan nan nan nan nan nan nan nan nan nan 287 289 292 291 290 291 289 288 286 nan nan nan nan nan nan nan nan 311 305 306 306 307
nan nan nan nan nan nan nan nan nan nan nan nan nan nan nan nan nan nan nan nan nan nan nan 283 282 282 283 283 284 284 283 280 nan nan nan nan nan nan 306 302 304 307 308
nan nan nan nan nan nan nan nan nan nan nan nan nan nan nan nan nan nan nan nan nan nan nan nan nan nan nan 278 280 281 279 279 280 275 273 nan nan 293 301 300 298 299 302
nan nan nan nan nan nan nan nan nan nan nan nan nan nan nan nan nan nan nan nan nan nan nan nan nan nan nan nan 277 278 280 275 272 274 271 272 nan nan 292 293 293 291 293
nan nan nan nan nan nan nan nan nan nan nan nan nan nan nan nan nan nan nan nan nan nan nan nan nan nan nan nan nan nan nan nan 275 274 nan 270 270 nan 288 294 293 288 289
nan nan nan nan nan nan nan nan nan nan nan nan nan nan nan nan nan nan nan nan nan nan nan nan nan nan nan nan nan nan nan nan nan nan nan nan 268 264 268 273 283 286 287
nan nan nan nan nan nan nan nan nan nan nan nan nan nan nan nan nan nan nan nan nan nan nan nan nan nan nan nan nan nan nan nan nan nan nan nan 266 266 262 263 266 268 279
nan nan nan nan nan nan nan nan nan nan nan nan nan nan nan nan nan nan nan nan nan nan nan nan nan nan nan nan nan nan nan nan nan nan nan nan nan 261 261 261 259 260 259
nan nan nan nan nan nan nan nan nan nan nan nan nan nan nan nan nan nan nan nan nan nan nan nan nan nan nan nan nan nan nan nan nan nan nan nan 259 254 252 253 252 254 255
nan nan nan nan nan nan nan nan nan nan nan nan nan nan nan nan nan nan nan nan nan nan nan nan nan nan nan nan nan nan nan nan nan nan nan nan 259 255 252 248 248 249 250
nan nan nan nan nan nan nan nan nan nan nan nan nan nan nan nan nan nan nan nan nan nan nan nan nan nan nan nan nan nan nan nan nan nan nan nan nan nan 248 247 245 245 247
nan nan nan nan nan nan nan nan nan nan nan nan nan nan nan nan nan nan nan nan nan nan nan nan nan nan nan nan nan nan nan nan nan nan nan nan nan 252 246 244 244 244 244
nan nan nan nan nan nan nan nan nan nan nan nan nan nan nan nan nan nan nan nan nan nan nan nan nan nan nan nan nan nan nan nan nan nan nan nan nan nan 244 237 237 241 243
nan nan nan nan nan nan nan nan nan nan nan nan nan nan nan nan nan nan nan nan nan nan nan nan nan nan nan nan nan nan nan nan nan nan nan nan nan nan nan nan nan 234 236